Location: Davidschlag
(48.4333°N, 14.2833°E)
Time: 09:11:31
(UTC+00:00)

STARLINK-1027 - Pass Details

Date: 27 February 2020
Orbit: 569 x 570 km, 53.0° (Epoch: 28 March)

Event Time Altitude Azimuth Distance (km) Brightness Sun altitude
Rises 18:51:57 0° 277° (W) 2,769 8.7 -22.1°
Reaches altitude 10° 18:54:17 10° 284° (WNW) 1,873 7.5 -22.5°
Maximum altitude 18:58:23 44° 357° (N) 792 4.4 -23.1°
Enters shadow 18:58:47 43° 15° (NNE) 810 4.4 -23.2°
